Time,TemperatureF,DewpointF,PressureIn,WindDirection,WindDirectionDegrees,WindSpeedMPH,WindSpeedGustMPH,Humidity,HourlyPrecipIn,Conditions,Clouds,dailyrainin,SoftwareType,DateUTC
2013-09-14 00:03:00,47.0,42.0,-100.00,WSW,255,1.0,2.0,81,0.00,,,-99.99,,2013-09-14 05:03:00,
2013-09-14 00:13:00,47.0,42.0,-100.00,WSW,255,1.0,2.0,81,0.00,,,-99.99,,2013-09-14 05:13:00,
2013-09-14 00:52:00,47.0,42.0,-100.00,SSW,205,2.0,4.0,83,0.00,,,-99.99,,2013-09-14 05:52:00,
2013-09-14 01:02:00,47.0,42.0,-100.00,SSW,205,2.0,4.0,83,0.00,,,-99.99,,2013-09-14 06:02:00,
2013-09-14 01:12:00,47.0,42.0,-100.00,SSW,205,2.0,4.0,83,0.00,,,-99.99,,2013-09-14 06:12:00,
2013-09-14 01:52:00,47.0,42.0,-100.00,South,190,1.0,4.0,84,0.00,,,-99.99,,2013-09-14 06:52:00,
2013-09-14 02:02:00,47.0,42.0,-100.00,South,190,1.0,4.0,84,0.00,,,-99.99,,2013-09-14 07:02:00,
2013-09-14 02:12:00,47.0,42.0,-100.00,South,190,1.0,4.0,84,0.00,,,-99.99,,2013-09-14 07:12:00,
2013-09-14 02:52:00,45.0,42.0,-100.00,South,190,1.0,4.0,89,0.00,,,-99.99,,2013-09-14 07:52:00,
2013-09-14 03:02:00,45.0,42.0,-100.00,South,190,1.0,4.0,89,0.00,,,-99.99,,2013-09-14 08:02:00,
2013-09-14 03:12:00,45.0,42.0,-100.00,South,190,1.0,4.0,89,0.00,,,-99.99,,2013-09-14 08:12:00,
2013-09-14 03:52:00,42.0,39.0,-100.00,SSW,200,1.0,2.0,90,0.00,,,-99.99,,2013-09-14 08:52:00,
2013-09-14 04:02:00,42.0,39.0,-100.00,SSW,200,1.0,2.0,90,0.00,,,-99.99,,2013-09-14 09:02:00,
2013-09-14 04:12:00,42.0,39.0,-100.00,SSW,200,1.0,2.0,90,0.00,,,-99.99,,2013-09-14 09:12:00,
2013-09-14 04:54:00,41.0,39.0,-100.00,SW,215,0.0,1.0,92,0.00,,,-99.99,,2013-09-14 09:54:00,
2013-09-14 05:03:00,41.0,39.0,-100.00,SW,215,0.0,1.0,92,0.00,,,-99.99,,2013-09-14 10:03:00,
2013-09-14 05:12:00,41.0,39.0,-100.00,SW,215,0.0,1.0,92,0.00,,,-99.99,,2013-09-14 10:12:00,
2013-09-14 05:53:00,41.0,40.0,-100.00,South,180,2.0,2.0,93,0.00,,,-99.99,,2013-09-14 10:53:00,
2013-09-14 06:02:00,41.0,40.0,-100.00,South,180,2.0,2.0,93,0.00,,,-99.99,,2013-09-14 11:02:00,
2013-09-14 06:12:00,41.0,40.0,-100.00,South,180,2.0,2.0,93,0.00,,,-99.99,,2013-09-14 11:12:00,
2013-09-14 06:52:00,39.0,37.0,-100.00,West,275,1.0,3.0,93,0.00,,,-99.99,,2013-09-14 11:52:00,
2013-09-14 07:02:00,39.0,37.0,-100.00,West,275,1.0,3.0,93,0.00,,,-99.99,,2013-09-14 12:02:00,
2013-09-14 07:12:00,39.0,37.0,-100.00,West,275,1.0,3.0,93,0.00,,,-99.99,,2013-09-14 12:12:00,
2013-09-14 07:52:00,39.0,38.0,-100.00,South,170,0.0,3.0,93,0.00,,,-99.99,,2013-09-14 12:52:00,
2013-09-14 08:01:00,39.0,38.0,-100.00,South,170,0.0,3.0,93,0.00,,,-99.99,,2013-09-14 13:01:00,
2013-09-14 08:12:00,39.0,38.0,-100.00,South,170,0.0,3.0,93,0.00,,,-99.99,,2013-09-14 13:12:00,
2013-09-14 08:52:00,47.0,44.0,-100.00,SW,225,1.0,4.0,89,0.00,,,-99.99,,2013-09-14 13:52:00,
2013-09-14 09:02:00,47.0,44.0,-100.00,SW,225,1.0,4.0,89,0.00,,,-99.99,,2013-09-14 14:02:00,
2013-09-14 09:12:00,47.0,44.0,-100.00,SW,225,1.0,4.0,89,0.00,,,-99.99,,2013-09-14 14:12:00,
2013-09-14 09:52:00,54.0,44.0,-100.00,SW,230,7.0,14.0,69,0.00,,,-99.99,,2013-09-14 14:52:00,
2013-09-14 10:02:00,54.0,44.0,-100.00,SW,230,7.0,14.0,69,0.00,,,-99.99,,2013-09-14 15:02:00,
2013-09-14 10:11:00,54.0,44.0,-100.00,SW,230,7.0,14.0,69,0.00,,,-99.99,,2013-09-14 15:11:00,
2013-09-14 10:53:00,62.0,41.0,-100.00,SW,225,6.0,11.0,47,0.00,,,-99.99,,2013-09-14 15:53:00,
2013-09-14 11:03:00,62.0,41.0,-100.00,SW,225,6.0,11.0,47,0.00,,,-99.99,,2013-09-14 16:03:00,
2013-09-14 11:13:00,62.0,41.0,-100.00,SW,225,6.0,11.0,47,0.00,,,-99.99,,2013-09-14 16:13:00,
2013-09-14 11:54:00,65.0,37.0,-100.00,SW,215,6.0,11.0,36,0.00,,,-99.99,,2013-09-14 16:54:00,
2013-09-14 12:03:00,65.0,37.0,-100.00,SW,215,6.0,11.0,36,0.00,,,-99.99,,2013-09-14 17:03:00,
2013-09-14 12:11:00,65.0,37.0,-100.00,SW,215,6.0,11.0,36,0.00,,,-99.99,,2013-09-14 17:11:00,
2013-09-14 13:52:00,69.0,35.0,-100.00,SSW,200,4.0,12.0,28,0.00,,,-99.99,,2013-09-14 18:52:00,
2013-09-14 14:02:00,69.0,35.0,-100.00,SSW,200,4.0,12.0,28,0.00,,,-99.99,,2013-09-14 19:02:00,
2013-09-14 14:11:00,69.0,35.0,-100.00,SSW,200,4.0,12.0,28,0.00,,,-99.99,,2013-09-14 19:11:00,
2013-09-14 14:52:00,69.0,36.0,-100.00,SSW,195,7.0,14.0,29,0.00,,,-99.99,,2013-09-14 19:52:00,
2013-09-14 15:02:00,69.0,36.0,-100.00,SSW,195,7.0,14.0,29,0.00,,,-99.99,,2013-09-14 20:02:00,
2013-09-14 15:12:00,69.0,36.0,-100.00,SSW,195,7.0,14.0,29,0.00,,,-99.99,,2013-09-14 20:12:00,
2013-09-14 15:52:00,71.0,36.0,-100.00,SSW,195,9.0,14.0,28,0.00,,,-99.99,,2013-09-14 20:52:00,
2013-09-14 16:02:00,71.0,36.0,-100.00,SSW,195,9.0,14.0,28,0.00,,,-99.99,,2013-09-14 21:02:00,
2013-09-14 16:11:00,71.0,36.0,-100.00,SSW,195,9.0,14.0,28,0.00,,,-99.99,,2013-09-14 21:11:00,
2013-09-14 16:54:00,72.0,37.0,-100.00,SW,225,7.0,14.0,28,0.00,,,-99.99,,2013-09-14 21:54:00,
2013-09-14 17:04:00,72.0,37.0,-100.00,SW,225,7.0,14.0,28,0.00,,,-99.99,,2013-09-14 22:04:00,
2013-09-14 17:13:00,72.0,37.0,-100.00,SW,225,7.0,14.0,28,0.00,,,-99.99,,2013-09-14 22:13:00,
2013-09-14 17:53:00,71.0,37.0,-100.00,SW,220,6.0,13.0,29,0.00,,,-99.99,,2013-09-14 22:53:00,
2013-09-14 18:03:00,71.0,37.0,-100.00,SW,220,6.0,13.0,29,0.00,,,-99.99,,2013-09-14 23:03:00,
2013-09-14 18:11:00,71.0,37.0,-100.00,SW,220,6.0,13.0,29,0.00,,,-99.99,,2013-09-14 23:11:00,
2013-09-14 18:53:00,68.0,37.0,-100.00,South,175,6.0,7.0,32,0.00,,,-99.99,,2013-09-14 23:53:00,
2013-09-14 19:02:00,68.0,37.0,-100.00,South,175,6.0,7.0,32,0.00,,,-99.99,,2013-09-15 00:02:00,
2013-09-14 19:12:00,68.0,37.0,-100.00,South,175,6.0,7.0,32,0.00,,,-99.99,,2013-09-15 00:12:00,
2013-09-14 19:53:00,66.0,38.0,-100.00,SSW,205,2.0,5.0,37,0.00,,,-99.99,,2013-09-15 00:53:00,
2013-09-14 20:01:00,66.0,38.0,-100.00,SSW,205,2.0,5.0,37,0.00,,,-99.99,,2013-09-15 01:01:00,
2013-09-14 20:11:00,66.0,38.0,-100.00,SSW,205,2.0,5.0,37,0.00,,,-99.99,,2013-09-15 01:11:00,
2013-09-14 20:52:00,63.0,42.0,-100.00,WSW,255,1.0,4.0,48,0.00,,,-99.99,,2013-09-15 01:52:00,
2013-09-14 21:02:00,63.0,42.0,-100.00,WSW,255,1.0,4.0,48,0.00,,,-99.99,,2013-09-15 02:02:00,
2013-09-14 21:12:00,63.0,42.0,-100.00,WSW,255,1.0,4.0,48,0.00,,,-99.99,,2013-09-15 02:12:00,
2013-09-14 21:52:00,62.0,43.0,-100.00,SSE,165,3.0,4.0,51,0.00,,,-99.99,,2013-09-15 02:52:00,
2013-09-14 22:02:00,62.0,43.0,-100.00,SSE,165,3.0,4.0,51,0.00,,,-99.99,,2013-09-15 03:02:00,
2013-09-14 22:11:00,62.0,43.0,-100.00,SSE,165,3.0,4.0,51,0.00,,,-99.99,,2013-09-15 03:11:00,
2013-09-14 22:55:00,59.0,46.0,-100.00,NW,315,0.0,1.0,61,0.00,,,-99.99,,2013-09-15 03:55:00,
2013-09-14 23:02:00,-999.0,-99.9,-100.00,NW,315,0.0,1.0,-999,-99.99,,,-99.99,,2013-09-15 04:02:00,
2013-09-14 23:14:00,59.0,46.0,-100.00,NW,315,0.0,1.0,61,0.00,,,-99.99,,2013-09-15 04:14:00,
2013-09-14 23:54:00,60.0,47.0,-100.00,SSE,165,2.0,3.0,62,0.00,,,-99.99,,2013-09-15 04:54:00,